COSMOS 2522 (752)

Last updated on Aug. 13, 2020, 5:30 a.m. UTC

1 42939U 17055A   20225.79560660  .00000062  00000-0  00000+0 0  9992
2 42939  64.3266 265.1061 0009596 243.5229  10.8100  2.13101952 22494
UTC
Height (km)
Latitude
Longitude
Inclination
Orbital Period
UTC large
Height (km)
Speed (km/s)
/
Latitude / Longitude
Inclination (degrees)
Orbital Period (minutes)
Azimuth
Elevation
Range (km)
Doppler Factor
iOS Compass Heading
iOS Angle

Next 30 passes for location: Hong Kong

Rise time Rise Azimuth (degrees) Set time Set Azimuth (degrees) Duration Max altitude (degrees)

No matching passes for this satellites